TimeAKDT,TemperatureF,Dew PointF,Humidity,Sea Level PressureIn,VisibilityMPH,Wind Direction,Wind SpeedMPH,Gust SpeedMPH,PrecipitationIn,Events,Conditions,WindDirDegrees,DateUTC
12:16 AM,41.0,37.4,87,29.95,10.0,SSE,6.9,-,N/A,,Clear,150,2011-10-02 08:16:00
12:36 AM,41.0,37.4,87,29.96,10.0,SE,6.9,-,N/A,,Clear,140,2011-10-02 08:36:00
12:56 AM,41.0,37.4,87,29.96,10.0,SE,6.9,-,N/A,,Clear,140,2011-10-02 08:56:00
1:16 AM,39.2,37.4,93,29.96,10.0,SE,8.1,-,N/A,,Clear,140,2011-10-02 09:16:00
1:36 AM,41.0,37.4,87,29.96,10.0,SE,9.2,-,N/A,,Clear,140,2011-10-02 09:36:00
1:56 AM,39.2,35.6,87,29.96,10.0,SE,6.9,-,N/A,,Clear,130,2011-10-02 09:56:00
2:16 AM,39.2,35.6,87,29.96,10.0,SE,5.8,-,N/A,,Clear,130,2011-10-02 10:16:00
2:36 AM,39.2,35.6,87,29.96,10.0,ESE,5.8,-,N/A,,Clear,120,2011-10-02 10:36:00
2:56 AM,39.2,35.6,87,29.97,10.0,ESE,6.9,-,N/A,,Clear,120,2011-10-02 10:56:00
3:16 AM,39.2,35.6,87,29.97,10.0,SSE,6.9,-,N/A,,Clear,150,2011-10-02 11:16:00
3:36 AM,39.2,35.6,87,29.97,10.0,SE,6.9,-,N/A,,Clear,140,2011-10-02 11:36:00
3:56 AM,39.2,35.6,87,29.98,10.0,SE,6.9,-,N/A,,Clear,140,2011-10-02 11:56:00
4:16 AM,39.2,35.6,87,29.98,10.0,ESE,6.9,-,N/A,,Clear,120,2011-10-02 12:16:00
4:36 AM,39.2,35.6,87,29.98,10.0,SSE,8.1,-,N/A,,Scattered Clouds,150,2011-10-02 12:36:00
4:56 AM,39.2,35.6,87,29.99,10.0,SE,6.9,-,N/A,,Overcast,140,2011-10-02 12:56:00
5:16 AM,39.2,35.6,87,29.99,10.0,SSE,4.6,-,N/A,,Mostly Cloudy,150,2011-10-02 13:16:00
5:36 AM,39.2,35.6,87,29.99,10.0,SSE,6.9,-,N/A,,Partly Cloudy,150,2011-10-02 13:36:00
5:56 AM,37.4,35.6,93,29.99,10.0,SSE,6.9,-,N/A,,Partly Cloudy,160,2011-10-02 13:56:00
6:16 AM,39.2,35.6,87,29.98,10.0,SE,8.1,-,N/A,,Partly Cloudy,140,2011-10-02 14:16:00
6:36 AM,39.2,35.6,87,29.99,10.0,SSE,8.1,-,N/A,,Partly Cloudy,160,2011-10-02 14:36:00
6:56 AM,37.4,35.6,93,30.00,10.0,SE,5.8,-,N/A,,Scattered Clouds,140,2011-10-02 14:56:00
7:16 AM,39.2,35.6,87,30.00,10.0,SE,6.9,-,N/A,,Scattered Clouds,130,2011-10-02 15:16:00
7:36 AM,39.2,35.6,87,30.00,10.0,ESE,6.9,-,N/A,,Scattered Clouds,120,2011-10-02 15:36:00
7:56 AM,41.0,37.4,87,30.00,10.0,ESE,8.1,-,N/A,,Mostly Cloudy,110,2011-10-02 15:56:00
8:16 AM,41.0,35.6,81,29.99,10.0,ESE,12.7,-,N/A,,Mostly Cloudy,120,2011-10-02 16:16:00
8:36 AM,42.8,37.4,81,29.99,10.0,ESE,11.5,-,N/A,,Mostly Cloudy,120,2011-10-02 16:36:00
8:56 AM,42.8,37.4,81,30.00,10.0,SE,6.9,-,N/A,,Mostly Cloudy,130,2011-10-02 16:56:00
9:16 AM,42.8,37.4,81,30.00,10.0,SE,8.1,-,N/A,,Mostly Cloudy,140,2011-10-02 17:16:00
9:36 AM,44.6,37.4,76,29.99,10.0,ESE,10.4,-,N/A,,Mostly Cloudy,120,2011-10-02 17:36:00
9:56 AM,44.6,37.4,76,29.99,10.0,ESE,8.1,-,N/A,,Partly Cloudy,120,2011-10-02 17:56:00
10:16 AM,44.6,39.2,81,29.99,10.0,East,5.8,-,N/A,,Partly Cloudy,100,2011-10-02 18:16:00
10:36 AM,46.4,39.2,76,29.99,10.0,East,3.5,-,N/A,,Partly Cloudy,90,2011-10-02 18:36:00
10:56 AM,46.4,39.2,76,29.99,10.0,East,4.6,-,N/A,,Partly Cloudy,100,2011-10-02 18:56:00
11:16 AM,46.4,37.4,71,29.99,10.0,North,3.5,-,N/A,,Partly Cloudy,360,2011-10-02 19:16:00
11:36 AM,46.4,37.4,71,29.98,10.0,NNW,3.5,-,N/A,,Partly Cloudy,330,2011-10-02 19:36:00
11:56 AM,44.6,37.4,76,29.98,10.0,Calm,Calm,-,N/A,,Partly Cloudy,0,2011-10-02 19:56:00
12:16 PM,46.4,37.4,71,29.97,10.0,Calm,Calm,-,N/A,,Partly Cloudy,0,2011-10-02 20:16:00
12:36 PM,48.2,35.6,62,29.96,10.0,Calm,Calm,-,N/A,,Partly Cloudy,0,2011-10-02 20:36:00
12:56 PM,48.2,37.4,66,29.96,10.0,NNW,3.5,-,N/A,,Partly Cloudy,340,2011-10-02 20:56:00
1:16 PM,48.2,37.4,66,29.95,10.0,NW,3.5,-,N/A,,Partly Cloudy,320,2011-10-02 21:16:00
1:36 PM,48.2,37.4,66,29.94,10.0,NW,5.8,-,N/A,,Partly Cloudy,310,2011-10-02 21:36:00
1:56 PM,48.2,37.4,66,29.94,10.0,WNW,5.8,-,N/A,,Partly Cloudy,290,2011-10-02 21:56:00
2:16 PM,51.8,39.2,62,29.93,10.0,NW,5.8,-,N/A,,Partly Cloudy,310,2011-10-02 22:16:00
2:36 PM,51.8,37.4,58,29.93,10.0,NW,4.6,-,N/A,,Partly Cloudy,320,2011-10-02 22:36:00
2:56 PM,51.8,37.4,58,29.92,10.0,NW,5.8,-,N/A,,Partly Cloudy,310,2011-10-02 22:56:00
3:16 PM,53.6,37.4,54,29.91,10.0,WNW,5.8,-,N/A,,Partly Cloudy,300,2011-10-02 23:16:00
3:36 PM,53.6,37.4,54,29.91,10.0,WNW,5.8,-,N/A,,Partly Cloudy,290,2011-10-02 23:36:00
3:56 PM,53.6,37.4,54,29.90,10.0,West,5.8,-,N/A,,Partly Cloudy,280,2011-10-02 23:56:00
4:16 PM,53.6,35.6,51,29.90,10.0,WSW,5.8,-,N/A,,Partly Cloudy,240,2011-10-03 00:16:00
4:36 PM,53.6,35.6,51,29.90,10.0,WSW,4.6,-,N/A,,Partly Cloudy,250,2011-10-03 00:36:00
4:56 PM,51.8,35.6,54,29.90,10.0,WSW,5.8,-,N/A,,Partly Cloudy,240,2011-10-03 00:56:00
5:16 PM,51.8,37.4,58,29.89,10.0,SW,5.8,-,N/A,,Partly Cloudy,220,2011-10-03 01:16:00
5:36 PM,48.2,39.2,71,29.89,10.0,Calm,Calm,-,N/A,,Partly Cloudy,0,2011-10-03 01:36:00
5:56 PM,48.2,37.4,66,29.89,10.0,Calm,Calm,-,N/A,,Partly Cloudy,0,2011-10-03 01:56:00
6:16 PM,46.4,37.4,71,29.89,10.0,Calm,Calm,-,N/A,,Partly Cloudy,0,2011-10-03 02:16:00
6:36 PM,44.6,37.4,76,29.88,10.0,SSW,3.5,-,N/A,,Partly Cloudy,210,2011-10-03 02:36:00
6:56 PM,42.8,37.4,81,29.88,10.0,SSW,4.6,-,N/A,,Partly Cloudy,200,2011-10-03 02:56:00
7:16 PM,42.8,37.4,81,29.88,10.0,Calm,Calm,-,N/A,,Clear,0,2011-10-03 03:16:00
7:36 PM,42.8,37.4,81,29.88,10.0,SE,5.8,-,N/A,,Clear,130,2011-10-03 03:36:00
7:56 PM,44.6,35.6,71,29.87,10.0,East,3.5,-,N/A,,Clear,90,2011-10-03 03:56:00
8:16 PM,42.8,35.6,76,29.87,10.0,Calm,Calm,-,N/A,,Clear,0,2011-10-03 04:16:00
8:36 PM,41.0,35.6,81,29.87,10.0,Calm,Calm,-,N/A,,Clear,0,2011-10-03 04:36:00
8:56 PM,42.8,35.6,76,29.86,10.0,SE,3.5,-,N/A,,Clear,130,2011-10-03 04:56:00
9:16 PM,41.0,35.6,81,29.85,10.0,SE,5.8,-,N/A,,Clear,140,2011-10-03 05:16:00
9:36 PM,41.0,35.6,81,29.85,10.0,ESE,4.6,-,N/A,,Clear,110,2011-10-03 05:36:00
9:56 PM,42.8,37.4,81,29.84,10.0,ESE,4.6,-,N/A,,Clear,110,2011-10-03 05:56:00
10:16 PM,42.8,37.4,81,29.84,10.0,ESE,6.9,-,N/A,,Clear,120,2011-10-03 06:16:00
10:36 PM,42.8,37.4,81,29.84,10.0,ESE,6.9,-,N/A,,Clear,110,2011-10-03 06:36:00
10:56 PM,42.8,37.4,81,29.83,10.0,ESE,6.9,-,N/A,,Clear,120,2011-10-03 06:56:00
11:16 PM,42.8,39.2,87,29.82,10.0,ESE,9.2,-,N/A,,Clear,120,2011-10-03 07:16:00
11:36 PM,42.8,37.4,81,29.81,10.0,SE,9.2,-,N/A,,Clear,130,2011-10-03 07:36:00
11:56 PM,41.0,37.4,87,29.80,10.0,SE,8.1,-,N/A,,Clear,130,2011-10-03 07:56:00